The Eastern Iowa Airport
KCID : now visible

Airfield :











YOU CAN JOIN US ON...

 
LOGIN :

Register | Disclaimer

   EN    FR    IT 

 









Legend :    VFR   Marginal VFR   IFR   Intensive IFR   Very Intensive IFR
Visi :
Ceiling :
>= 8 km
>= 3000ft
5 to 8 km
1000 to 3000 ft
1500m to 5 km
500 to 1000 ft
800 to 1500m
200 to 500 ft
< 800m
< 200 ft
Symbols :   Thunderstorms  Fog  Heavy snow  Heavy precipitations  Wind > 20 kt






- Airport Elevation : 869 ft
- IATA code : CID


KCID - The Eastern Iowa

CURRENT METAR :
  • 230952Z 34006KT 6SM BR CLR M01/M01 A3003 RMK AO2 SLP176 I1001 T10061006

EXPIRED METARs :
  • 230852Z 34007KT 6SM BR CLR M01/M01 A3002 RMK AO2 SLP173 I1000 I3000 T10061006 56009
  • 230752Z 36004KT 8SM CLR 01/01 A3003 RMK AO2 SLP174 T00060006

TAF KCID
Valid from the 23 at 07:00 until the 24 at 06:00 UTC


230709Z 2307/2406 VRB03KT 3SM BR SCT006
FM231400 07007KT P6SM FEW250
FM240500 09006KT P6SM OVC100
KZAU FIR / North America



MET'MAP, your aeronautical weather chart ! - Copyright ORBIFLY December 2007 - Disclaimer

ORBIFLY MET'MAP TEAM :

Programming & Development : Alexandra Zaïnal
Concept & original design : Baudouin d'Aumeries
Assistance for programming : Marc-Olivier Méhu
Technical & hardware support : Manuel Goepfert

Contact : metmap@orbifly.com




SOURCES & CREDITS :

   NOAA       Earth
Advisory